Location: Highridge
(54.0333°N, 114.1333°W)
Time: 07:29:30
(UTC+00:00)

SPROUT - Visible Passes

Search period start: 06 December 2023 00:00
Search period end: 16 December 2023 00:00
Orbit: 522 x 528 km, 98.0° (Epoch: 05 December)

Date Brightness Start Highest point End Pass type
(mag) Time Alt. Az. Time Alt. Az. Time Alt. Az.
07 Dec ? 00:35:18 10° NNW 00:36:57 12° NW 00:38:36 10° W visible
08 Dec ? 00:22:45 10° NNW 00:25:03 15° NW 00:27:20 10° W visible
09 Dec ? 00:10:17 10° NNW 00:13:03 19° WNW 00:15:48 10° WSW visible
09 Dec ? 23:57:51 10° N 00:00:58 24° WNW 00:04:03 10° WSW visible
14 Dec ? 00:44:02 10° NW 00:45:10 11° NW 00:46:19 10° WNW visible
15 Dec ? 00:30:46 10° NNW 00:32:47 14° NW 00:34:47 10° W visible
